Wind_Speed
4 7 13 15 14 10 5 9 14 8 3 4 14 20 22 22 21 25 23 23 23 25 22 27 30 34 33 32 30 28 26 24 23 21 20 19 18 17 16 15 13 12 11 10
4 13 13 2 4 9 9 11 15 9 4 6 13 20 23 25 23 24 20 16 14 13 18 25 29 35 36 35 32 31 28 26 24 22 21 20 19 19 18 16 15 14 13 11
13 1 5 6 6 9 11 14 11 9 2 8 10 17 14 7 4 6 11 11 10 10 16 23 31 36 37 37 36 33 30 27 25 24 23 21 20 19 19 18 16 14 13 12
9 2 7 6 9 11 13 9 8 5 3 10 2 11 11 11 13 9 7 11 7 7 12 20 29 35 39 38 35 33 31 28 26 25 24 22 20 20 19 17 16 16 15 14
3 7 7 9 8 13 3 2 4 2 6 5 9 7 7 2 7 8 3 4 0 3 10 18 27 32 35 35 36 34 30 29 27 25 24 22 21 20 18 18 19 18 17 16
9 0 4 4 3 6 9 4 2 1 3 9 15 13 7 5 8 6 5 3 1 1 6 12 20 26 31 34 35 35 32 29 27 26 24 23 23 22 21 21 21 20 18 18
4 7 3 4 5 3 7 5 4 5 5 8 3 8 13 6 3 2 4 3 1 3 5 10 18 25 29 33 34 34 32 30 27 26 25 25 24 23 21 21 20 20 20 19
8 9 11 11 13 7 14 8 7 9 7 11 4 9 6 4 1 4 4 5 4 4 7 11 14 18 22 27 31 33 32 30 28 27 26 25 23 22 22 21 21 21 21 20
6 8 3 6 4 5 7 10 3 8 7 8 11 16 11 5 6 7 8 8 8 7 8 10 14 16 20 25 29 31 31 30 28 26 24 23 23 23 22 21 21 21 21 20
3 10 5 5 3 1 5 4 4 5 8 16 15 17 13 6 13 13 12 14 11 9 11 12 14 16 19 22 26 27 27 26 26 25 25 24 23 22 21 21 21 20 20 19
4 7 7 6 9 12 5 6 6 5 9 15 18 14 1 1 4 11 14 16 16 13 12 13 14 16 18 20 23 25 24 24 23 23 23 22 22 21 19 19 18 18 18 17
8 5 13 19 7 3 13 18 20 13 18 12 16 21 3 4 1 4 9 14 14 13 13 15 16 16 18 20 21 22 22 23 23 22 20 19 19 18 18 18 19 19 19 18
6 7 13 17 8 2 8 15 17 18 11 23 17 18 3 3 4 8 12 17 17 17 16 16 17 18 18 19 20 19 20 20 17 17 17 17 17 16 16 16 16 15 14 13
2 13 16 16 17 3 6 10 14 17 12 19 21 25 27 22 14 11 13 18 22 21 20 18 17 18 18 19 18 18 17 16 17 15 14 13 12 11 11 11 11 11 11 11
4 8 16 23 26 20 19 20 18 16 18 15 22 24 28 25 18 15 21 19 20 19 18 17 18 15 15 15 15 15 14 14 13 13 12 11 10 9 8 9 9 8 9 10
11 6 7 12 23 22 23 26 28 30 31 32 31 30 25 23 31 26 2 14 16 15 15 17 17 16 14 12 11 12 13 13 12 12 11 10 9 8 8 7 8 8 10 12
13 6 6 15 18 16 14 13 13 16 19 11 9 12 17 19 20 29 28 23 18 16 17 15 13 13 12 11 8 8 8 9 9 8 7 7 7 7 7 7 9 12 13 14
18 16 11 14 15 17 9 15 16 20 20 18 15 14 10 13 23 31 27 22 21 17 14 10 7 6 5 6 6 5 5 5 6 5 5 5 6 8 9 10 11 12 13 15
6 3 5 4 9 1 9 11 8 7 7 18 17 18 19 21 1 22 23 19 18 15 10 7 4 1 1 1 1 2 3 3 3 3 5 8 10 11 12 12 13 14 15 17
11 6 2 6 6 4 6 21 18 5 3 22 21 19 24 24 5 5 14 12 12 10 8 6 4 4 5 6 5 4 4 4 5 7 9 10 12 13 13 13 13 14 15 17
10 6 5 6 4 4 16 28 17 1 8 24 21 20 20 10 9 9 11 12 11 11 9 9 8 8 9 10 11 10 8 8 10 10 11 11 13 14 15 15 15 15 17 18
5 6 4 4 4 2 28 8 7 8 14 15 18 19 19 17 14 13 13 15 16 15 14 14 14 13 13 12 13 13 12 11 11 13 15 14 14 15 15 17 17 17 18 19
4 5 3 5 3 7 8 9 8 11 13 17 19 20 18 16 17 18 17 17 18 17 17 15 15 15 12 12 15 15 14 15 16 16 17 17 17 17 17 18 19 19 19 20
8 18 3 3 6 15 3 8 15 16 16 19 18 16 17 17 17 17 17 18 18 19 18 16 16 15 16 15 15 16 18 18 19 20 19 19 21 20 20 21 21 21 21 21
6 10 9 3 8 11 9 18 21 21 24 21 22 18 18 18 20 20 22 21 21 21 19 18 19 20 20 20 20 19 20 21 22 23 22 22 23 23 22 22 23 22 23 21
9 4 4 2 11 11 23 18 21 26 25 23 24 25 24 21 23 24 25 24 24 23 19 24 23 23 23 24 25 23 22 23 24 24 23 20 20 19 18 20 21 21 21 21
Wind_Direction
185 218 220 228 223 271 282 268 265 259 174 250 252 267 277 276 263 264 261 256 250 240 231 227 219 211 207 207 206 206 205 206 206 204 202 200 200 197 196 195 192 193 193 188
194 241 246 199 218 228 238 259 262 271 199 222 278 272 278 276 265 262 263 255 243 236 215 216 211 207 206 206 205 206 206 208 208 207 207 207 203 200 200 201 201 201 202 200
230 241 122 185 188 208 229 237 258 267 246 236 285 273 253 263 232 224 238 247 245 239 207 202 201 203 203 205 206 207 208 207 208 207 207 207 206 205 205 206 208 208 210 211
245 186 207 204 230 210 254 229 236 238 261 278 296 287 265 254 264 258 250 232 238 247 207 202 199 200 202 205 207 208 208 208 208 209 210 211 212 210 211 214 215 215 215 216
222 181 191 215 230 190 266 107 179 209 251 302 221 259 271 187 257 213 175 135 177 248 211 203 201 202 203 204 206 207 208 209 210 211 212 212 212 213 215 218 219 220 220 219
260 3 223 236 114 184 138 118 108 147 239 257 250 221 266 232 230 187 151 137 89 244 210 203 203 203 202 204 205 206 207 208 210 211 213 214 216 219 218 217 219 221 222 223
202 220 187 182 177 138 193 181 261 238 207 256 145 210 257 243 210 246 209 215 215 204 185 195 201 202 204 205 203 204 206 209 211 213 215 216 219 222 222 221 222 223 224 224
267 271 187 179 218 197 193 219 219 253 251 281 160 236 250 235 285 229 215 197 197 197 195 194 192 199 205 205 203 205 206 210 212 214 217 218 221 223 225 225 226 227 225 224
221 248 146 197 167 188 164 208 263 263 253 269 253 255 247 192 226 210 203 195 195 187 194 193 191 192 197 199 201 203 205 209 211 214 217 219 221 223 226 225 223 222 224 224
255 276 183 135 149 196 221 138 173 205 257 254 258 263 261 231 230 220 215 210 199 192 194 194 189 186 186 190 195 200 204 209 211 213 215 217 219 219 220 220 218 219 222 225
238 231 236 151 197 207 178 215 226 293 248 258 266 261 308 272 277 222 222 208 197 190 189 188 185 184 185 189 193 198 200 204 207 210 213 214 213 212 212 213 213 214 218 222
218 255 255 247 224 286 268 242 232 236 240 239 259 264 351 279 219 263 225 197 191 185 188 185 181 181 178 180 183 188 189 196 200 203 203 205 204 199 201 204 206 207 210 215
189 232 267 260 223 189 229 230 240 246 276 251 256 261 140 158 233 238 212 190 184 180 183 188 184 180 182 183 186 192 197 200 200 205 210 217 218 214 215 217 219 222 227 232
26 264 247 256 265 291 241 236 231 233 246 257 253 270 272 268 248 222 205 198 190 184 184 181 182 178 180 181 183 184 185 186 188 192 193 197 203 206 210 213 219 222 228 229
314 251 257 261 269 276 268 266 263 250 249 251 261 258 266 286 291 282 217 191 183 179 171 171 175 174 172 173 174 173 173 174 174 178 184 185 188 192 197 196 206 212 221 232
319 279 281 263 258 260 261 268 272 267 269 266 266 265 11 351 16 8 208 179 170 164 158 168 166 160 153 152 153 157 157 158 162 167 174 179 184 190 206 213 225 233 240 246
262 264 271 269 280 278 257 349 348 54 31 336 17 336 351 17 32 25 38 58 67 83 99 115 126 134 138 139 142 146 149 149 160 168 178 191 201 208 224 238 245 245 245 247
269 280 258 267 274 257 97 42 54 84 43 21 4 5 16 38 37 34 45 79 89 91 90 94 107 123 132 142 148 155 155 155 165 175 195 225 240 237 238 244 249 256 261 262
349 343 303 1 324 108 50 26 357 3 43 13 5 357 345 324 100 36 35 51 65 75 80 85 78 51 19 267 143 167 178 183 211 246 257 260 262 262 259 256 256 259 263 265
2 34 9 338 292 306 16 328 317 238 172 4 2 0 359 357 52 25 22 23 41 42 32 24 6 327 322 320 314 312 326 309 272 262 263 265 269 269 269 269 268 269 267 267
343 358 344 316 267 92 340 327 324 17 335 348 352 1 5 21 24 360 360 3 12 10 0 351 337 324 319 315 313 311 300 287 276 272 273 278 277 275 277 276 274 270 269 270
41 340 14 315 339 277 357 358 49 316 330 342 347 355 354 349 349 352 346 349 349 346 342 337 333 323 311 303 303 307 301 288 283 285 284 281 277 278 279 278 276 275 275 275
55 353 358 13 63 330 8 50 11 354 341 342 342 340 341 342 340 336 338 339 335 332 324 323 318 313 307 302 302 300 296 294 291 288 288 288 284 283 280 278 277 276 275 276
14 15 39 262 23 346 77 28 357 357 344 338 336 330 333 324 327 322 323 328 325 323 326 321 315 310 306 303 300 299 296 295 293 291 289 285 285 284 283 279 278 277 276 274
351 323 334 318 7 340 245 346 344 337 339 333 332 329 329 325 325 326 325 326 323 322 319 315 311 308 307 305 303 301 298 295 293 290 289 288 287 283 279 278 276 275 272 266
1 352 346 303 337 309 290 305 324 330 335 332 329 328 330 327 324 323 319 319 318 319 313 311 308 305 303 302 301 300 296 292 291 292 290 285 280 281 282 278 278 275 269 264
Height
1494 1492 1484 1477 1480 1478 1484 1482 1478 1473 1482 1483 1474 1466 1455 1454 1456 1452 1450 1451 1450 1451 1455 1456 1460 1464 1469 1472 1476 1480 1482 1485 1488 1491 1493 1495 1497 1499 1501 1503 1504 1505 1506 1507
1493 1484 1475 1482 1484 1485 1484 1481 1475 1474 1482 1483 1468 1462 1451 1443 1442 1442 1443 1442 1442 1444 1447 1449 1453 1458 1462 1467 1472 1475 1479 1482 1485 1488 1491 1493 1495 1496 1498 1500 1501 1503 1504 1505
1479 1475 1479 1479 1482 1483 1480 1476 1469 1474 1479 1479 1476 1451 1441 1434 1437 1438 1438 1438 1439 1439 1441 1443 1446 1451 1457 1462 1466 1470 1474 1478 1481 1484 1487 1490 1492 1493 1495 1496 1498 1500 1502 1503
1479 1476 1477 1478 1476 1476 1473 1469 1475 1478 1477 1466 1475 1447 1431 1429 1428 1432 1433 1434 1436 1436 1438 1440 1443 1447 1451 1456 1463 1467 1470 1474 1477 1481 1483 1486 1489 1490 1491 1493 1495 1497 1499 1501
1468 1474 1477 1476 1469 1472 1468 1476 1477 1479 1475 1480 1465 1470 1422 1434 1426 1425 1431 1433 1434 1435 1435 1438 1440 1444 1450 1455 1458 1463 1467 1470 1474 1477 1480 1483 1485 1486 1488 1490 1492 1494 1495 1497
1470 1474 1472 1465 1471 1473 1477 1477 1480 1482 1478 1470 1448 1457 1419 1422 1420 1424 1430 1432 1432 1432 1433 1436 1439 1443 1446 1450 1454 1458 1462 1466 1469 1473 1476 1479 1481 1482 1483 1485 1487 1489 1492 1493
1467 1465 1465 1467 1468 1475 1474 1472 1469 1467 1477 1454 1462 1462 1420 1418 1424 1425 1427 1432 1432 1431 1432 1433 1436 1439 1441 1445 1450 1454 1458 1462 1465 1468 1471 1473 1476 1478 1479 1481 1483 1485 1487 1489
1460 1458 1458 1459 1455 1454 1466 1462 1460 1458 1446 1433 1465 1440 1411 1419 1425 1428 1429 1430 1430 1430 1430 1431 1433 1436 1440 1443 1447 1451 1455 1458 1461 1464 1466 1469 1471 1473 1475 1477 1479 1482 1483 1485
1456 1452 1454 1455 1455 1454 1463 1464 1453 1452 1446 1452 1423 1409 1409 1421 1422 1425 1426 1427 1428 1428 1427 1428 1430 1433 1436 1439 1443 1447 1450 1453 1456 1459 1462 1464 1466 1468 1471 1473 1474 1477 1480 1481
1444 1447 1447 1454 1456 1457 1454 1453 1456 1455 1452 1440 1411 1408 1404 1414 1413 1417 1422 1423 1425 1425 1426 1427 1428 1430 1432 1435 1438 1442 1446 1450 1452 1455 1457 1459 1461 1463 1465 1468 1468 1471 1474 1477
1449 1448 1440 1453 1449 1439 1456 1449 1451 1449 1432 1427 1416 1399 1390 1399 1402 1408 1412 1418 1421 1424 1425 1427 1428 1429 1430 1433 1436 1439 1442 1446 1449 1451 1453 1455 1456 1458 1460 1463 1464 1466 1469 1472
1443 1438 1431 1425 1427 1437 1435 1425 1427 1431 1422 1419 1408 1391 1396 1402 1406 1409 1410 1416 1420 1423 1425 1426 1426 1429 1429 1430 1433 1435 1437 1440 1443 1446 1449 1453 1455 1454 1456 1459 1460 1462 1464 1466
1437 1434 1429 1418 1427 1439 1433 1423 1422 1414 1418 1413 1412 1387 1401 1405 1405 1406 1407 1412 1416 1419 1422 1425 1426 1426 1429 1430 1432 1435 1437 1439 1442 1445 1447 1450 1453 1452 1453 1455 1457 1459 1461 1464
1444 1438 1433 1418 1407 1417 1428 1422 1421 1420 1420 1405 1398 1394 1384 1389 1398 1400 1406 1410 1410 1412 1418 1421 1425 1425 1427 1428 1431 1431 1434 1436 1436 1441 1444 1447 1449 1450 1451 1451 1453 1454 1457 1460
1445 1436 1430 1422 1417 1417 1419 1418 1415 1417 1411 1411 1401 1399 1390 1392 1392 1390 1397 1404 1409 1413 1416 1420 1422 1425 1427 1429 1430 1431 1432 1434 1436 1439 1442 1444 1446 1446 1449 1450 1451 1452 1453 1456
1451 1439 1435 1426 1419 1417 1413 1410 1409 1405 1403 1397 1392 1389 1441 1422 1411 1404 1403 1406 1411 1416 1420 1421 1422 1425 1428 1431 1433 1433 1432 1433 1436 1438 1441 1443 1443 1444 1448 1448 1449 1450 1452 1453
1443 1443 1431 1413 1409 1407 1403 1449 1440 1440 1461 1455 1440 1456 1447 1436 1429 1426 1418 1418 1424 1428 1429 1429 1430 1430 1430 1431 1434 1435 1434 1433 1435 1438 1440 1441 1442 1442 1443 1444 1447 1449 1449 1450
1441 1435 1429 1411 1410 1402 1460 1468 1466 1466 1476 1472 1468 1458 1456 1452 1447 1441 1438 1433 1430 1434 1438 1439 1439 1438 1437 1434 1432 1434 1433 1434 1434 1436 1437 1440 1441 1440 1440 1440 1442 1444 1445 1446
1447 1441 1436 1424 1426 1420 1446 1466 1477 1478 1475 1479 1472 1467 1457 1452 1444 1450 1449 1448 1442 1439 1441 1441 1442 1442 1441 1440 1435 1433 1433 1432 1433 1434 1435 1437 1439 1439 1438 1436 1435 1436 1438 1440
1438 1439 1439 1435 1427 1420 1482 1475 1474 1475 1464 1482 1478 1468 1462 1456 1444 1459 1452 1456 1448 1445 1446 1444 1444 1444 1443 1442 1439 1433 1431 1431 1432 1432 1433 1431 1434 1436 1435 1434 1431 1432 1431 1433
1444 1453 1444 1438 1430 1473 1492 1475 1468 1453 1484 1487 1487 1476 1472 1469 1469 1463 1460 1458 1451 1447 1447 1444 1446 1445 1442 1441 1442 1436 1432 1431 1431 1430 1430 1427 1428 1429 1430 1430 1427 1427 1427 1427
1480 1483 1473 1467 1460 1458 1494 1480 1484 1501 1493 1493 1489 1480 1476 1474 1469 1464 1461 1457 1452 1449 1447 1445 1443 1442 1440 1440 1439 1435 1434 1430 1428 1428 1429 1424 1423 1424 1422 1423 1423 1421 1422 1420
1487 1507 1496 1500 1502 1508 1505 1503 1503 1500 1497 1492 1486 1483 1479 1473 1470 1467 1460 1455 1453 1449 1449 1443 1442 1440 1439 1437 1435 1433 1431 1427 1426 1423 1424 1422 1420 1418 1417 1418 1417 1413 1413 1413
1508 1508 1505 1506 1508 1506 1505 1504 1502 1499 1496 1492 1489 1485 1480 1476 1470 1466 1461 1454 1452 1450 1444 1442 1441 1439 1436 1434 1430 1427 1428 1422 1420 1420 1417 1417 1415 1414 1411 1411 1409 1407 1406 1406
1521 1514 1514 1505 1507 1504 1501 1501 1499 1495 1492 1489 1485 1480 1475 1470 1465 1460 1455 1451 1449 1446 1443 1441 1439 1435 1431 1428 1425 1423 1419 1417 1414 1413 1411 1408 1407 1407 1403 1401 1401 1398 1398 1400
1525 1524 1520 1513 1516 1516 1505 1500 1497 1493 1488 1484 1479 1473 1470 1466 1460 1456 1452 1449 1445 1442 1440 1436 1432 1429 1426 1421 1418 1417 1414 1411 1408 1404 1403 1401 1401 1399 1393 1394 1392 1390 1392 1394